Year,Month,Day,Hour,Minute,Value (Times are PST for temperature in C)
2008,07,26,00,00,18.50
2008,07,26,00,01,18.50
2008,07,26,00,02,18.50
2008,07,26,00,03,18.50
2008,07,26,00,04,18.50
2008,07,26,00,05,18.50
2008,07,26,00,06,18.50
2008,07,26,00,07,18.50
2008,07,26,00,08,18.50
2008,07,26,00,09,18.50
2008,07,26,00,10,18.40
2008,07,26,00,11,18.40
2008,07,26,00,12,18.40
2008,07,26,00,13,18.40
2008,07,26,00,14,18.30
2008,07,26,00,15,18.30
2008,07,26,00,16,18.30
2008,07,26,00,17,18.30
2008,07,26,00,18,18.20
2008,07,26,00,19,18.20
2008,07,26,00,20,18.20
2008,07,26,00,21,18.20
2008,07,26,00,22,18.20
2008,07,26,00,23,18.20
2008,07,26,00,24,18.20
2008,07,26,00,25,18.20
2008,07,26,00,26,18.20
2008,07,26,00,27,18.20
2008,07,26,00,28,18.20
2008,07,26,00,29,18.20
2008,07,26,00,30,18.20
2008,07,26,00,31,18.20
2008,07,26,00,32,18.20
2008,07,26,00,33,18.20
2008,07,26,00,34,18.20
2008,07,26,00,35,18.20
2008,07,26,00,36,18.20
2008,07,26,00,37,18.20
2008,07,26,00,38,18.10
2008,07,26,00,39,18.10
2008,07,26,00,40,18.10
2008,07,26,00,41,18.10
2008,07,26,00,42,18.10
2008,07,26,00,43,17.90
2008,07,26,00,44,18.00
2008,07,26,00,45,18.10
2008,07,26,00,46,18.10
2008,07,26,00,47,18.10
2008,07,26,00,48,18.20
2008,07,26,00,49,18.20
2008,07,26,00,50,18.20
2008,07,26,00,51,18.20
2008,07,26,00,52,18.20
2008,07,26,00,53,18.20
2008,07,26,00,54,18.20
2008,07,26,00,55,18.20
2008,07,26,00,56,18.20
2008,07,26,00,57,18.10
2008,07,26,00,58,18.10
2008,07,26,00,59,18.10
2008,07,26,01,00,18.10
2008,07,26,01,01,18.10
2008,07,26,01,02,18.10
2008,07,26,01,03,18.10
2008,07,26,01,04,18.10
2008,07,26,01,05,18.10
2008,07,26,01,06,18.10
2008,07,26,01,07,17.90
2008,07,26,01,08,17.90
2008,07,26,01,09,17.90
2008,07,26,01,10,17.90
2008,07,26,01,11,17.90
2008,07,26,01,12,17.90
2008,07,26,01,13,17.80
2008,07,26,01,14,17.80
2008,07,26,01,15,17.80
2008,07,26,01,16,17.80
2008,07,26,01,17,17.80
2008,07,26,01,18,17.80
2008,07,26,01,19,17.80
2008,07,26,01,20,17.80
2008,07,26,01,21,17.80
2008,07,26,01,22,17.70
2008,07,26,01,23,17.60
2008,07,26,01,24,17.50
2008,07,26,01,25,17.50
2008,07,26,01,26,17.40
2008,07,26,01,27,17.30
2008,07,26,01,28,17.30
2008,07,26,01,29,17.30
2008,07,26,01,30,17.30
2008,07,26,01,31,17.30
2008,07,26,01,32,17.20
2008,07,26,01,33,17.20
2008,07,26,01,34,17.20
2008,07,26,01,35,17.10
2008,07,26,01,36,17.10
2008,07,26,01,37,17.10
2008,07,26,01,38,17.00
2008,07,26,01,39,17.00
2008,07,26,01,40,17.00
2008,07,26,01,41,16.90
2008,07,26,01,42,16.90
2008,07,26,01,43,16.90
2008,07,26,01,44,16.90
2008,07,26,01,45,16.80
2008,07,26,01,46,16.80
2008,07,26,01,47,16.80
2008,07,26,01,48,16.70
2008,07,26,01,49,16.70
2008,07,26,01,50,16.70
2008,07,26,01,51,16.70
2008,07,26,01,52,16.70
2008,07,26,01,53,16.60
2008,07,26,01,54,16.50
2008,07,26,01,55,16.40
2008,07,26,01,56,16.30
2008,07,26,01,57,16.20
2008,07,26,01,58,16.20
2008,07,26,01,59,16.10
2008,07,26,02,00,16.10
2008,07,26,02,01,16.00
2008,07,26,02,02,15.90
2008,07,26,02,03,15.80
2008,07,26,02,04,15.80
2008,07,26,02,05,15.80
2008,07,26,02,06,15.80
2008,07,26,02,07,15.80
2008,07,26,02,08,15.80
2008,07,26,02,09,15.70
2008,07,26,02,10,15.70
2008,07,26,02,11,15.70
2008,07,26,02,12,15.70
2008,07,26,02,13,15.70
2008,07,26,02,14,15.70
2008,07,26,02,15,15.70
2008,07,26,02,16,15.70
2008,07,26,02,17,15.70
2008,07,26,02,18,15.70
2008,07,26,02,19,15.70
2008,07,26,02,20,15.70
2008,07,26,02,21,15.70
2008,07,26,02,22,15.70
2008,07,26,02,23,15.70
2008,07,26,02,24,15.70
2008,07,26,02,25,15.80
2008,07,26,02,26,15.80
2008,07,26,02,27,15.80
2008,07,26,02,28,15.80
2008,07,26,02,29,15.80
2008,07,26,02,30,15.80
2008,07,26,02,31,15.80
2008,07,26,02,32,15.80
2008,07,26,02,33,15.80
2008,07,26,02,34,15.80
2008,07,26,02,35,15.80
2008,07,26,02,36,15.80
2008,07,26,02,37,15.80
2008,07,26,02,38,15.80
2008,07,26,02,39,15.90
2008,07,26,02,40,15.90
2008,07,26,02,41,15.90
2008,07,26,02,42,16.00
2008,07,26,02,43,16.10
2008,07,26,02,44,16.10
2008,07,26,02,45,16.10
2008,07,26,02,46,16.10
2008,07,26,02,47,16.10
2008,07,26,02,48,16.10
2008,07,26,02,49,16.00
2008,07,26,02,50,16.10
2008,07,26,02,51,16.10
2008,07,26,02,52,16.10
2008,07,26,02,53,16.10
2008,07,26,02,54,16.10
2008,07,26,02,55,16.10
2008,07,26,02,56,16.10
2008,07,26,02,57,16.10
2008,07,26,02,58,16.10
2008,07,26,02,59,16.00
2008,07,26,03,00,15.90
2008,07,26,03,01,15.90
2008,07,26,03,02,15.80
2008,07,26,03,03,15.70
2008,07,26,03,04,15.60
2008,07,26,03,05,15.60
2008,07,26,03,06,15.50
2008,07,26,03,07,15.40
2008,07,26,03,08,15.30
2008,07,26,03,09,15.30
2008,07,26,03,10,15.20
2008,07,26,03,11,15.20
2008,07,26,03,12,15.10
2008,07,26,03,13,15.10
2008,07,26,03,14,15.00
2008,07,26,03,15,15.00
2008,07,26,03,16,14.90
2008,07,26,03,17,14.90
2008,07,26,03,18,14.80
2008,07,26,03,19,14.80
2008,07,26,03,20,14.80
2008,07,26,03,21,14.80
2008,07,26,03,22,14.80
2008,07,26,03,23,14.80
2008,07,26,03,24,14.80
2008,07,26,03,25,14.80
2008,07,26,03,26,14.80
2008,07,26,03,27,14.80
2008,07,26,03,28,14.80
2008,07,26,03,29,14.80
2008,07,26,03,30,14.80
2008,07,26,03,31,14.80
2008,07,26,03,32,14.90
2008,07,26,03,33,14.90
2008,07,26,03,34,14.90
2008,07,26,03,35,14.90
2008,07,26,03,36,15.00
2008,07,26,03,37,15.00
2008,07,26,03,38,15.10
2008,07,26,03,39,15.10
2008,07,26,03,40,15.10
2008,07,26,03,41,15.20
2008,07,26,03,42,15.20
2008,07,26,03,43,15.20
2008,07,26,03,44,15.20
2008,07,26,03,45,15.20
2008,07,26,03,46,15.30
2008,07,26,03,47,15.30
2008,07,26,03,48,15.30
2008,07,26,03,49,15.30
2008,07,26,03,50,15.30
2008,07,26,03,51,15.30
2008,07,26,03,52,15.20
2008,07,26,03,53,15.20
2008,07,26,03,54,15.10
2008,07,26,03,55,15.10
2008,07,26,03,56,15.10
2008,07,26,03,57,15.00
2008,07,26,03,58,15.00
2008,07,26,03,59,15.00
2008,07,26,04,00,14.90
2008,07,26,04,01,14.80
2008,07,26,04,02,14.80
2008,07,26,04,03,14.80
2008,07,26,04,04,14.70
2008,07,26,04,05,14.60
2008,07,26,04,06,14.60
2008,07,26,04,07,14.50
2008,07,26,04,08,14.50
2008,07,26,04,09,14.40
2008,07,26,04,10,14.30
2008,07,26,04,11,14.30
2008,07,26,04,12,14.20
2008,07,26,04,13,14.20
2008,07,26,04,14,14.20
2008,07,26,04,15,14.10
2008,07,26,04,16,14.10
2008,07,26,04,17,14.00
2008,07,26,04,18,13.90
2008,07,26,04,19,13.90
2008,07,26,04,20,13.80
2008,07,26,04,21,13.70
2008,07,26,04,22,13.70
2008,07,26,04,23,13.60
2008,07,26,04,24,13.60
2008,07,26,04,25,13.50
2008,07,26,04,26,13.50
2008,07,26,04,27,13.50
2008,07,26,04,28,13.40
2008,07,26,04,29,13.40
2008,07,26,04,30,13.30
2008,07,26,04,31,13.30
2008,07,26,04,32,13.30
2008,07,26,04,33,13.30
2008,07,26,04,34,13.30
2008,07,26,04,35,13.30
2008,07,26,04,36,13.30
2008,07,26,04,37,13.30
2008,07,26,04,38,13.30
2008,07,26,04,39,13.20
2008,07,26,04,40,13.20
2008,07,26,04,41,13.20
2008,07,26,04,42,13.20
2008,07,26,04,43,13.20
2008,07,26,04,44,13.20
2008,07,26,04,45,13.20
2008,07,26,04,46,13.20
2008,07,26,04,47,13.20
2008,07,26,04,48,13.20
2008,07,26,04,49,13.20
2008,07,26,04,50,13.20
2008,07,26,04,51,13.20
2008,07,26,04,52,13.20
2008,07,26,04,53,13.20
2008,07,26,04,54,13.20
2008,07,26,04,55,13.30
2008,07,26,04,56,13.30
2008,07,26,04,57,13.30
2008,07,26,04,58,13.30
2008,07,26,04,59,13.40
2008,07,26,05,00,13.40
2008,07,26,05,01,13.50
2008,07,26,05,02,13.50
2008,07,26,05,03,13.50
2008,07,26,05,04,13.50
2008,07,26,05,05,13.60
2008,07,26,05,06,13.70
2008,07,26,05,07,13.70
2008,07,26,05,08,13.70
2008,07,26,05,09,13.70
2008,07,26,05,10,13.80
2008,07,26,05,11,13.80
2008,07,26,05,12,13.80
2008,07,26,05,13,13.80
2008,07,26,05,14,13.90
2008,07,26,05,15,13.80
2008,07,26,05,16,13.80
2008,07,26,05,17,13.80
2008,07,26,05,18,13.80
2008,07,26,05,19,13.70
2008,07,26,05,20,13.70
2008,07,26,05,21,13.70
2008,07,26,05,22,13.60
2008,07,26,05,23,13.60
2008,07,26,05,24,13.50
2008,07,26,05,25,13.50
2008,07,26,05,26,13.40
2008,07,26,05,27,13.30
2008,07,26,05,28,13.30
2008,07,26,05,29,13.30
2008,07,26,05,30,13.20
2008,07,26,05,31,13.20
2008,07,26,05,32,13.10
2008,07,26,05,33,13.10
2008,07,26,05,34,13.10
2008,07,26,05,35,13.00
2008,07,26,05,36,13.00
2008,07,26,05,37,13.00
2008,07,26,05,38,12.90
2008,07,26,05,39,12.80
2008,07,26,05,40,12.80
2008,07,26,05,41,12.80
2008,07,26,05,42,12.80
2008,07,26,05,43,12.70
2008,07,26,05,44,12.70
2008,07,26,05,45,12.60
2008,07,26,05,46,12.60
2008,07,26,05,47,12.60
2008,07,26,05,48,12.50
2008,07,26,05,49,12.50
2008,07,26,05,50,12.50
2008,07,26,05,51,12.40
2008,07,26,05,52,12.40
2008,07,26,05,53,12.30
2008,07,26,05,54,12.30
2008,07,26,05,55,12.30
2008,07,26,05,56,12.30
2008,07,26,05,57,12.20
2008,07,26,05,58,12.20
2008,07,26,05,59,12.20
2008,07,26,06,00,12.20
2008,07,26,06,01,12.10
2008,07,26,06,02,12.10
2008,07,26,06,03,12.10
2008,07,26,06,04,12.10
2008,07,26,06,05,12.10
2008,07,26,06,06,12.10
2008,07,26,06,07,12.10
2008,07,26,06,08,12.10
2008,07,26,06,09,12.10
2008,07,26,06,10,12.10
2008,07,26,06,11,12.10
2008,07,26,06,12,12.10
2008,07,26,06,13,12.10
2008,07,26,06,14,12.00
2008,07,26,06,15,12.00
2008,07,26,06,16,12.00
2008,07,26,06,17,12.00
2008,07,26,06,18,12.00
2008,07,26,06,19,12.00
2008,07,26,06,20,12.00
2008,07,26,06,21,12.00
2008,07,26,06,22,12.00
2008,07,26,06,23,12.00
2008,07,26,06,24,12.00
2008,07,26,06,25,12.00
2008,07,26,06,26,12.00
2008,07,26,06,27,12.00
2008,07,26,06,28,12.00
2008,07,26,06,29,12.10
2008,07,26,06,30,12.20
2008,07,26,06,31,12.30
2008,07,26,06,32,12.30
2008,07,26,06,33,12.30
2008,07,26,06,34,12.30
2008,07,26,06,35,12.40
2008,07,26,06,36,12.40
2008,07,26,06,37,12.40
2008,07,26,06,38,12.50
2008,07,26,06,39,12.50
2008,07,26,06,40,12.60
2008,07,26,06,41,12.60
2008,07,26,06,42,12.60
2008,07,26,06,43,12.60
2008,07,26,06,44,12.60
2008,07,26,06,45,12.60
2008,07,26,06,46,12.70
2008,07,26,06,47,12.80
2008,07,26,06,48,12.80
2008,07,26,06,49,12.80
2008,07,26,06,50,12.90
2008,07,26,06,51,13.00
2008,07,26,06,52,13.00
2008,07,26,06,53,13.10
2008,07,26,06,54,13.20
2008,07,26,06,55,13.20
2008,07,26,06,56,13.20
2008,07,26,06,57,13.30
2008,07,26,06,58,13.30
2008,07,26,06,59,13.40
2008,07,26,07,00,13.40
2008,07,26,07,01,13.40
2008,07,26,07,02,13.40
2008,07,26,07,03,13.40
2008,07,26,07,04,13.40
2008,07,26,07,05,13.40
2008,07,26,07,06,13.40
2008,07,26,07,07,13.50
2008,07,26,07,08,13.50
2008,07,26,07,09,13.50
2008,07,26,07,10,13.50
2008,07,26,07,11,13.60
2008,07,26,07,12,13.60
2008,07,26,07,13,13.60
2008,07,26,07,14,13.70
2008,07,26,07,15,13.70
2008,07,26,07,16,13.80
2008,07,26,07,17,13.80
2008,07,26,07,18,13.90
2008,07,26,07,19,13.90
2008,07,26,07,20,13.90
2008,07,26,07,21,14.00
2008,07,26,07,22,14.00
2008,07,26,07,23,14.00
2008,07,26,07,24,14.10
2008,07,26,07,25,14.10
2008,07,26,07,26,14.20
2008,07,26,07,27,14.20
2008,07,26,07,28,14.20
2008,07,26,07,29,14.30
2008,07,26,07,30,14.30
2008,07,26,07,31,14.30
2008,07,26,07,32,14.30
2008,07,26,07,33,14.30
2008,07,26,07,34,14.30
2008,07,26,07,35,14.20
2008,07,26,07,36,14.20
2008,07,26,07,37,14.20
2008,07,26,07,38,14.20
2008,07,26,07,39,14.20
2008,07,26,07,40,14.20
2008,07,26,07,41,14.20
2008,07,26,07,42,14.20
2008,07,26,07,43,14.20
2008,07,26,07,44,14.20
2008,07,26,07,45,14.20
2008,07,26,07,46,14.20
2008,07,26,07,47,14.30
2008,07,26,07,48,14.30
2008,07,26,07,49,14.30
2008,07,26,07,50,14.30
2008,07,26,07,51,14.30
2008,07,26,07,52,14.30
2008,07,26,07,53,14.30
2008,07,26,07,54,14.30
2008,07,26,07,55,14.30
2008,07,26,07,56,14.30
2008,07,26,07,57,14.40
2008,07,26,07,58,14.40
2008,07,26,07,59,14.40
2008,07,26,08,00,14.50
2008,07,26,08,01,14.50
2008,07,26,08,02,14.50
2008,07,26,08,03,14.50
2008,07,26,08,04,14.50
2008,07,26,08,05,14.50
2008,07,26,08,06,14.50
2008,07,26,08,07,14.50
2008,07,26,08,08,14.50
2008,07,26,08,09,14.50
2008,07,26,08,10,14.60
2008,07,26,08,11,14.60
2008,07,26,08,12,14.60
2008,07,26,08,13,14.70
2008,07,26,08,14,14.70
2008,07,26,08,15,14.80
2008,07,26,08,16,14.80
2008,07,26,08,17,14.80
2008,07,26,08,18,14.80
2008,07,26,08,19,14.80
2008,07,26,08,20,14.80
2008,07,26,08,21,14.80
2008,07,26,08,22,14.80
2008,07,26,08,23,14.80
2008,07,26,08,24,14.80
2008,07,26,08,25,14.80
2008,07,26,08,26,14.80
2008,07,26,08,27,14.80
2008,07,26,08,28,14.80
2008,07,26,08,29,14.80
2008,07,26,08,30,14.70
2008,07,26,08,31,14.70
2008,07,26,08,32,14.60
2008,07,26,08,33,14.60
2008,07,26,08,34,14.60
2008,07,26,08,35,14.60
2008,07,26,08,36,14.60
2008,07,26,08,37,14.60
2008,07,26,08,38,14.60
2008,07,26,08,39,14.60
2008,07,26,08,40,14.60
2008,07,26,08,41,14.60
2008,07,26,08,42,14.60
2008,07,26,08,43,14.60
2008,07,26,08,44,14.50
2008,07,26,08,45,14.50
2008,07,26,08,46,14.50
2008,07,26,08,47,14.50
2008,07,26,08,48,14.40
2008,07,26,08,49,14.50
2008,07,26,08,50,14.50
2008,07,26,08,51,14.50
2008,07,26,08,52,14.40
2008,07,26,08,53,14.40
2008,07,26,08,54,14.40
2008,07,26,08,55,14.40
2008,07,26,08,56,14.50
2008,07,26,08,57,14.50
2008,07,26,08,58,14.50
2008,07,26,08,59,14.50
2008,07,26,09,00,14.60
2008,07,26,09,01,14.70
2008,07,26,09,02,14.70
2008,07,26,09,03,14.80
2008,07,26,09,04,14.80
2008,07,26,09,05,14.80
2008,07,26,09,06,14.80
2008,07,26,09,07,14.80
2008,07,26,09,08,14.80
2008,07,26,09,09,14.80
2008,07,26,09,10,14.80
2008,07,26,09,11,14.80
2008,07,26,09,12,14.80
2008,07,26,09,13,14.80
2008,07,26,09,14,14.80
2008,07,26,09,15,14.80
2008,07,26,09,16,14.80
2008,07,26,09,17,14.80
2008,07,26,09,18,14.80
2008,07,26,09,19,14.80
2008,07,26,09,20,14.80
2008,07,26,09,21,14.80
2008,07,26,09,22,14.80
2008,07,26,09,23,14.80
2008,07,26,09,24,14.80
2008,07,26,09,25,14.80
2008,07,26,09,26,14.80
2008,07,26,09,27,14.80
2008,07,26,09,28,14.80
2008,07,26,09,29,14.80
2008,07,26,09,30,14.90
2008,07,26,09,31,14.90
2008,07,26,09,32,15.00
2008,07,26,09,33,15.10
2008,07,26,09,34,15.10
2008,07,26,09,35,15.10
2008,07,26,09,36,15.10
2008,07,26,09,37,15.20
2008,07,26,09,38,15.20
2008,07,26,09,39,15.20
2008,07,26,09,40,15.20
2008,07,26,09,41,15.30
2008,07,26,09,42,15.30
2008,07,26,09,43,15.30
2008,07,26,09,44,15.30
2008,07,26,09,45,15.30
2008,07,26,09,46,15.30
2008,07,26,09,47,15.30
2008,07,26,09,48,15.30
2008,07,26,09,49,15.20
2008,07,26,09,50,15.20
2008,07,26,09,51,15.20
2008,07,26,09,52,15.20
2008,07,26,09,53,15.20
2008,07,26,09,54,15.20
2008,07,26,09,55,15.20
2008,07,26,09,56,15.20
2008,07,26,09,57,15.20
2008,07,26,09,58,15.20
2008,07,26,09,59,15.20
2008,07,26,10,00,15.20
2008,07,26,10,01,15.20
2008,07,26,10,02,15.20
2008,07,26,10,03,15.30
2008,07,26,10,04,15.30
2008,07,26,10,05,15.30
2008,07,26,10,06,15.30
2008,07,26,10,07,15.30
2008,07,26,10,08,15.30
2008,07,26,10,09,15.20
2008,07,26,10,10,15.20
2008,07,26,10,11,15.20
2008,07,26,10,12,15.20
2008,07,26,10,13,15.20
2008,07,26,10,14,15.10
2008,07,26,10,15,15.10
2008,07,26,10,16,15.10
2008,07,26,10,17,15.10
2008,07,26,10,18,15.10
2008,07,26,10,19,15.10
2008,07,26,10,20,15.10
2008,07,26,10,21,15.10
2008,07,26,10,22,15.10
2008,07,26,10,23,15.10
2008,07,26,10,24,15.10
2008,07,26,10,25,15.10
2008,07,26,10,26,15.20
2008,07,26,10,27,15.20
2008,07,26,10,28,15.20
2008,07,26,10,29,15.10
2008,07,26,10,30,15.10
2008,07,26,10,31,15.10
2008,07,26,10,32,15.10
2008,07,26,10,33,15.20
2008,07,26,10,34,15.20
2008,07,26,10,35,15.20
2008,07,26,10,36,15.20
2008,07,26,10,37,15.20
2008,07,26,10,38,15.20
2008,07,26,10,39,15.20
2008,07,26,10,40,15.30
2008,07,26,10,41,15.30
2008,07,26,10,42,15.30
2008,07,26,10,43,15.30
2008,07,26,10,44,15.30
2008,07,26,10,45,15.30
2008,07,26,10,46,15.30
2008,07,26,10,47,15.30
2008,07,26,10,48,15.30
2008,07,26,10,49,15.30
2008,07,26,10,50,15.30
2008,07,26,10,51,15.30
2008,07,26,10,52,15.40
2008,07,26,10,53,15.40
2008,07,26,10,54,15.40
2008,07,26,10,55,15.50
2008,07,26,10,56,15.50
2008,07,26,10,57,15.60
2008,07,26,10,58,15.60
2008,07,26,10,59,15.70
2008,07,26,11,00,15.70
2008,07,26,11,01,15.70
2008,07,26,11,02,15.70
2008,07,26,11,03,15.70
2008,07,26,11,04,15.80
2008,07,26,11,05,15.80
2008,07,26,11,06,15.80
2008,07,26,11,07,15.90
2008,07,26,11,08,15.90
2008,07,26,11,09,15.90
2008,07,26,11,10,15.90
2008,07,26,11,11,15.90
2008,07,26,11,12,15.90
2008,07,26,11,13,15.90
2008,07,26,11,14,15.90
2008,07,26,11,15,15.90
2008,07,26,11,16,15.90
2008,07,26,11,17,15.90
2008,07,26,11,18,15.90
2008,07,26,11,19,15.90
2008,07,26,11,20,15.90
2008,07,26,11,21,15.90
2008,07,26,11,22,16.00
2008,07,26,11,23,16.10
2008,07,26,11,24,16.10
2008,07,26,11,25,16.10
2008,07,26,11,26,16.20
2008,07,26,11,27,16.20
2008,07,26,11,28,16.20
2008,07,26,11,29,16.30
2008,07,26,11,30,16.30
2008,07,26,11,31,16.30
2008,07,26,11,32,16.30
2008,07,26,11,33,16.30
2008,07,26,11,34,16.30
2008,07,26,11,35,16.40
2008,07,26,11,36,16.40
2008,07,26,11,37,16.40
2008,07,26,11,38,16.50
2008,07,26,11,39,16.60
2008,07,26,11,40,16.60
2008,07,26,11,41,16.60
2008,07,26,11,42,16.60
2008,07,26,11,43,16.70
2008,07,26,11,44,16.70
2008,07,26,11,45,16.70
2008,07,26,11,46,16.80
2008,07,26,11,47,16.90
2008,07,26,11,48,16.90
2008,07,26,11,49,17.00
2008,07,26,11,50,17.10
2008,07,26,11,51,17.10
2008,07,26,11,52,17.10
2008,07,26,11,53,17.20
2008,07,26,11,54,17.20
2008,07,26,11,55,17.30
2008,07,26,11,56,17.30
2008,07,26,11,57,17.30
2008,07,26,11,58,17.20
2008,07,26,11,59,17.20
2008,07,26,12,00,17.20
2008,07,26,12,01,17.20
2008,07,26,12,02,17.20
2008,07,26,12,03,17.20
2008,07,26,12,04,17.20
2008,07,26,12,05,17.20
2008,07,26,12,06,17.20
2008,07,26,12,07,17.10
2008,07,26,12,08,17.10
2008,07,26,12,09,17.10
2008,07,26,12,10,17.20
2008,07,26,12,11,17.20
2008,07,26,12,12,17.20
2008,07,26,12,13,17.30
2008,07,26,12,14,17.30
2008,07,26,12,15,17.40
2008,07,26,12,16,17.40
2008,07,26,12,17,17.50
2008,07,26,12,18,17.50
2008,07,26,12,19,17.60
2008,07,26,12,20,17.60
2008,07,26,12,21,17.80
2008,07,26,12,22,17.90
2008,07,26,12,23,17.90
2008,07,26,12,24,17.90
2008,07,26,12,25,17.90
2008,07,26,12,26,17.90
2008,07,26,12,27,17.90
2008,07,26,12,28,17.80
2008,07,26,12,29,17.80
2008,07,26,12,30,17.90
2008,07,26,12,31,17.90
2008,07,26,12,32,18.00
2008,07,26,12,33,18.10
2008,07,26,12,34,18.10
2008,07,26,12,35,18.20
2008,07,26,12,36,18.20
2008,07,26,12,37,18.20
2008,07,26,12,38,18.20
2008,07,26,12,39,18.10
2008,07,26,12,40,18.10
2008,07,26,12,41,18.10
2008,07,26,12,42,18.20
2008,07,26,12,43,18.30
2008,07,26,12,44,18.50
2008,07,26,12,45,18.70
2008,07,26,12,46,18.80
2008,07,26,12,47,18.70
2008,07,26,12,48,18.70
2008,07,26,12,49,18.70
2008,07,26,12,50,18.70
2008,07,26,12,51,18.70
2008,07,26,12,52,18.70
2008,07,26,12,53,18.70
2008,07,26,12,54,18.70
2008,07,26,12,55,18.70
2008,07,26,12,56,18.90
2008,07,26,12,57,18.90
2008,07,26,12,58,18.90
2008,07,26,12,59,19.00
2008,07,26,13,00,19.10
2008,07,26,13,01,19.10
2008,07,26,13,02,19.10
2008,07,26,13,03,19.10
2008,07,26,13,04,19.20
2008,07,26,13,05,19.40
2008,07,26,13,06,19.50
2008,07,26,13,07,19.50
2008,07,26,13,08,19.50
2008,07,26,13,09,19.50
2008,07,26,13,10,19.50
2008,07,26,13,11,19.60
2008,07,26,13,12,19.60
2008,07,26,13,13,19.60
2008,07,26,13,14,19.70
2008,07,26,13,15,19.70
2008,07,26,13,16,19.70
2008,07,26,13,17,19.70
2008,07,26,13,18,19.50
2008,07,26,13,19,19.30
2008,07,26,13,20,19.10
2008,07,26,13,21,19.00
2008,07,26,13,22,19.00
2008,07,26,13,23,18.90
2008,07,26,13,24,18.90
2008,07,26,13,25,19.10
2008,07,26,13,26,19.00
2008,07,26,13,27,18.90
2008,07,26,13,28,18.90
2008,07,26,13,29,18.90
2008,07,26,13,30,18.90
2008,07,26,13,31,18.80
2008,07,26,13,32,18.80
2008,07,26,13,33,18.70
2008,07,26,13,34,18.80
2008,07,26,13,35,18.70
2008,07,26,13,36,18.80
2008,07,26,13,37,18.60
2008,07,26,13,38,18.50
2008,07,26,13,39,18.40
2008,07,26,13,40,18.40
2008,07,26,13,41,18.20
2008,07,26,13,42,18.10
2008,07,26,13,43,17.90
2008,07,26,13,44,17.90
2008,07,26,13,45,17.90
2008,07,26,13,46,17.80
2008,07,26,13,47,17.70
2008,07,26,13,48,17.70
2008,07,26,13,49,17.70
2008,07,26,13,50,17.50
2008,07,26,13,51,17.60
2008,07,26,13,52,17.70
2008,07,26,13,53,17.80
2008,07,26,13,54,17.90
2008,07,26,13,55,17.90
2008,07,26,13,56,18.00
2008,07,26,13,57,18.20
2008,07,26,13,58,18.40
2008,07,26,13,59,18.60
2008,07,26,14,00,18.80
2008,07,26,14,01,19.00
2008,07,26,14,02,19.20
2008,07,26,14,03,19.50
2008,07,26,14,04,19.70
2008,07,26,14,05,19.90
2008,07,26,14,06,19.80
2008,07,26,14,07,19.80
2008,07,26,14,08,19.70
2008,07,26,14,09,19.70
2008,07,26,14,10,19.70
2008,07,26,14,11,19.70
2008,07,26,14,12,19.80
2008,07,26,14,13,19.80
2008,07,26,14,14,19.80
2008,07,26,14,15,19.80
2008,07,26,14,16,19.80
2008,07,26,14,17,19.70
2008,07,26,14,18,19.70
2008,07,26,14,19,19.70
2008,07,26,14,20,19.70
2008,07,26,14,21,19.80
2008,07,26,14,22,19.90
2008,07,26,14,23,19.90
2008,07,26,14,24,19.90
2008,07,26,14,25,20.00
2008,07,26,14,26,20.10
2008,07,26,14,27,20.10
2008,07,26,14,28,20.00
2008,07,26,14,29,19.90
2008,07,26,14,30,19.90
2008,07,26,14,31,19.70
2008,07,26,14,32,19.50
2008,07,26,14,33,19.40
2008,07,26,14,34,19.50
2008,07,26,14,35,19.60
2008,07,26,14,36,19.60
2008,07,26,14,37,19.80
2008,07,26,14,38,20.00
2008,07,26,14,39,20.10
2008,07,26,14,40,20.20
2008,07,26,14,41,20.20
2008,07,26,14,42,20.20
2008,07,26,14,43,20.40
2008,07,26,14,44,20.70
2008,07,26,14,45,20.80
2008,07,26,14,46,20.80
2008,07,26,14,47,20.80
2008,07,26,14,48,20.80
2008,07,26,14,49,20.70
2008,07,26,14,50,20.60
2008,07,26,14,51,20.50
2008,07,26,14,52,20.50
2008,07,26,14,53,20.50
2008,07,26,14,54,20.50
2008,07,26,14,55,20.50
2008,07,26,14,56,20.40
2008,07,26,14,57,20.40
2008,07,26,14,58,20.30
2008,07,26,14,59,20.20
2008,07,26,15,00,20.20
2008,07,26,15,01,20.20
2008,07,26,15,02,20.30
2008,07,26,15,03,20.30
2008,07,26,15,04,20.40
2008,07,26,15,05,20.40
2008,07,26,15,06,20.40
2008,07,26,15,07,20.30
2008,07,26,15,08,20.30
2008,07,26,15,09,20.20
2008,07,26,15,10,20.10
2008,07,26,15,11,19.90
2008,07,26,15,12,19.90
2008,07,26,15,13,19.90
2008,07,26,15,14,19.90
2008,07,26,15,15,20.10
2008,07,26,15,16,20.20
2008,07,26,15,17,20.10
2008,07,26,15,18,20.00
2008,07,26,15,19,19.90
2008,07,26,15,20,19.80
2008,07,26,15,21,19.80
2008,07,26,15,22,19.70
2008,07,26,15,23,19.70
2008,07,26,15,24,19.70
2008,07,26,15,25,19.70
2008,07,26,15,26,19.70
2008,07,26,15,27,19.60
2008,07,26,15,28,19.60
2008,07,26,15,29,19.70
2008,07,26,15,30,19.80
2008,07,26,15,31,19.90
2008,07,26,15,32,19.90
2008,07,26,15,33,19.90
2008,07,26,15,34,19.90
2008,07,26,15,35,19.90
2008,07,26,15,36,19.90
2008,07,26,15,37,19.90
2008,07,26,15,38,19.90
2008,07,26,15,39,19.90
2008,07,26,15,40,20.00
2008,07,26,15,41,20.20
2008,07,26,15,42,20.20
2008,07,26,15,43,20.40
2008,07,26,15,44,20.50
2008,07,26,15,45,20.70
2008,07,26,15,46,20.70
2008,07,26,15,47,20.80
2008,07,26,15,48,20.90
2008,07,26,15,49,21.00
2008,07,26,15,50,21.10
2008,07,26,15,51,21.30
2008,07,26,15,52,21.40
2008,07,26,15,53,21.50
2008,07,26,15,54,21.60
2008,07,26,15,55,21.50
2008,07,26,15,56,21.40
2008,07,26,15,57,21.30
2008,07,26,15,58,21.20
2008,07,26,15,59,21.10
2008,07,26,16,00,21.10
2008,07,26,16,01,21.10
2008,07,26,16,02,21.20
2008,07,26,16,03,21.30
2008,07,26,16,04,21.30
2008,07,26,16,05,21.30
2008,07,26,16,06,21.40
2008,07,26,16,07,21.40
2008,07,26,16,08,21.40
2008,07,26,16,09,21.30
2008,07,26,16,10,21.30
2008,07,26,16,11,21.20
2008,07,26,16,12,21.10
2008,07,26,16,13,21.10
2008,07,26,16,14,21.10
2008,07,26,16,15,21.10
2008,07,26,16,16,21.10
2008,07,26,16,17,21.10
2008,07,26,16,18,21.00
2008,07,26,16,19,20.90
2008,07,26,16,20,20.80
2008,07,26,16,21,20.70
2008,07,26,16,22,20.70
2008,07,26,16,23,20.60
2008,07,26,16,24,20.50
2008,07,26,16,25,20.50
2008,07,26,16,26,20.50
2008,07,26,16,27,20.50
2008,07,26,16,28,20.50
2008,07,26,16,29,20.50
2008,07,26,16,30,20.40
2008,07,26,16,31,20.40
2008,07,26,16,32,20.30
2008,07,26,16,33,20.30
2008,07,26,16,34,20.30
2008,07,26,16,35,20.20
2008,07,26,16,36,20.20
2008,07,26,16,37,20.20
2008,07,26,16,38,20.20
2008,07,26,16,39,20.20
2008,07,26,16,40,20.20
2008,07,26,16,41,20.20
2008,07,26,16,42,20.20
2008,07,26,16,43,20.20
2008,07,26,16,44,20.20
2008,07,26,16,45,20.20
2008,07,26,16,46,20.20
2008,07,26,16,47,20.20
2008,07,26,16,48,20.30
2008,07,26,16,49,20.30
2008,07,26,16,50,20.30
2008,07,26,16,51,20.30
2008,07,26,16,52,20.40
2008,07,26,16,53,20.40
2008,07,26,16,54,20.40
2008,07,26,16,55,20.40
2008,07,26,16,56,20.40
2008,07,26,16,57,20.30
2008,07,26,16,58,20.30
2008,07,26,16,59,20.30
2008,07,26,17,00,20.30
2008,07,26,17,01,20.30
2008,07,26,17,02,20.30
2008,07,26,17,03,20.30
2008,07,26,17,04,20.30
2008,07,26,17,05,20.30
2008,07,26,17,06,20.30
2008,07,26,17,07,20.20
2008,07,26,17,08,20.20
2008,07,26,17,09,20.10
2008,07,26,17,10,20.10
2008,07,26,17,11,20.10
2008,07,26,17,12,20.10
2008,07,26,17,13,20.10
2008,07,26,17,14,20.10
2008,07,26,17,15,20.00
2008,07,26,17,16,19.90
2008,07,26,17,17,19.90
2008,07,26,17,18,19.90
2008,07,26,17,19,19.90